{"data":{"norad_id":68873,"epoch":"2026-05-24T22:35:59.341056Z","epoch_age_seconds":73876,"freshness":"FRESH","line1":"1 68873U 26095K   26144.94165904  .00025748  00000+0  68931-3 0  9994","line2":"2 68873  51.8827 354.7448 0004908 193.6263 166.4593 15.37849719  4159","mean_motion":15.37849719,"eccentricity":0.0004908,"inclination_deg":51.8827,"raan_deg":354.7448,"arg_perigee_deg":193.6263,"mean_anomaly_deg":166.4593,"bstar":0.00068931,"rev_number":415,"period_min":93.637237904909,"perigee_km":449.1166585418,"apogee_km":455.82158150921,"semimajor_km":6830.6061200255,"source":"CELESTRAK","updated_at":"2026-05-25T13:38:08.647177Z"}}